Weather Roundup
Issued by NWS Springfield, MO

Home | Current Version | Previous Version | Text Only | Print | Product List | Glossary On
Versions: 1 2 3 4 5 6 7 8 9 10 11 12 13 14 15 16 17 18 19 20 21 22 23 24 25 26 27 28 29 30 31 32 33 34 35 36 37 38 39 40 41 42 43 44 45 46 47 48 49 50
052
NZUS99 KSGF 091257
HRRSGF

HOURLY WEATHER
NATIONAL WEATHER SERVICE SPRINGFIELD MO
700 AM CST TUE FEB 09 2016

......SGF CWA......

CITY           SKY/WX    TMP DP  RH WIND       PRES   REMARKS
SPRINGFIELD    CLEAR     25  16  68 NW12      30.00R WCI  14
JOPLIN         CLEAR     27  19  72 W12       30.10R WCI  17
WEST PLAINS    PTCLDY    24  11  57 NW15G25   29.95R WCI  11
ROLLA          FLURRIES  18   9  68 NW20G28   29.95R WCI   2
BRANSON        PTCLDY    28  18  64 W12G22    30.00S WCI  18

......SURROUNDING SGF CWA......

CITY           SKY/WX    TMP DP  RH WIND       PRES   REMARKS
CHANUTE        CLEAR     29  19  66 NW14G23   30.13R WCI  18
PARSONS        CLEAR     29  19  66 NW13      30.15R WCI  19
COFFEYVILLE    CLEAR     30  19  63 NW12      30.17R WCI  20
EMPORIA        CLEAR     27  16  63 NW18G28   30.16R WCI  14
HARRISON AR    PTCLDY    29  18  63 W13G24    30.00R WCI  19

......KANSAS AND MISSOURI......

CITY           SKY/WX    TMP DP  RH WIND       PRES   REMARKS
KANSAS CTY INT PTCLDY    17   9  70 N23G31    30.11R WCI  -1
SEDALIA        CLOUDY    20   9  62 NW23G33   30.07R WCI   3
ST JOSEPH      CLEAR     15   6  67 N20G32    30.16R WCI  -2
ST LOUIS       FLURRIES  20  10  65 NW17G29   29.95R WCI   5
WICHITA        MOCLDY    33  18  53 NW15      30.20R WCI  23
TOPEKA         CLEAR     24   7  48 NW23G33   30.17R WCI   9
OLATHE         PTCLDY    22   9  57 N17G25    30.10R WCI   8

......TENNESSEE......

CITY           SKY/WX    TMP DP  RH WIND       PRES   REMARKS
MEMPHIS        NOT AVBL
NASHVILLE      LGT SNOW  26  18  71 NW6       29.89R WCI  19

......ARKANSAS.......

CITY           SKY/WX    TMP DP  RH WIND       PRES   REMARKS
FAYETTEVILLE   CLEAR     28  18  66 W12       30.09R WCI  18
FT SMITH       CLEAR     31  17  56 W12       30.15R WCI  22
LITTLE ROCK    PTCLDY    33  17  51 W7        30.07R WCI  27

......OKLAHOMA.......

CITY           SKY/WX    TMP DP  RH WIND       PRES   REMARKS
TULSA          PTCLDY    30  20  66 NW9       30.20R WCI  22
PONCA CITY     PTCLDY    30  21  69 MISG      30.23R
MCALESTER      PTCLDY    31  16  54 W6        30.23R WCI  25
OKLAHOMA CITY  PTCLDY    33  17  51 NW7       30.24R WCI  27

......IOWA............

CITY           SKY/WX    TMP DP  RH WIND       PRES   REMARKS
DES MOINES     NOT AVBL
QUAD CITIES    MOCLDY    13   5  70 NW16      29.92R WCI  -3

......ILLINOIS........

CITY           SKY/WX    TMP DP  RH WIND       PRES   REMARKS
QUINCY         LGT SNOW  15   8  73 NW23      29.96R WCI  -3
CHICAGO        LGT SNOW  16  11  80 NW14      29.78R WCI   2




USA.gov is the U.S. government's official web portal to all federal, state and local government web resources and services.